TimeCST,TemperatureF,Dew PointF,Humidity,Sea Level PressureIn,VisibilityMPH,Wind Direction,Wind SpeedMPH,Gust SpeedMPH,PrecipitationIn,Events,Conditions,WindDirDegrees,DateUTC
12:56 AM,43.0,33.1,68,29.72,10.0,South,9.2,-,N/A,,Partly Cloudy,170,2013-11-16 06:56:00
1:56 AM,44.1,34.0,68,29.70,10.0,SSE,11.5,-,N/A,,Mostly Cloudy,160,2013-11-16 07:56:00
2:56 AM,44.1,35.1,71,29.69,10.0,SSE,12.7,-,N/A,,Overcast,160,2013-11-16 08:56:00
3:56 AM,45.0,35.1,68,29.67,10.0,SSE,13.8,-,N/A,,Overcast,150,2013-11-16 09:56:00
4:56 AM,45.0,35.1,68,29.64,10.0,SSE,17.3,21.9,N/A,,Overcast,150,2013-11-16 10:56:00
5:56 AM,43.0,35.1,74,29.62,10.0,SSE,11.5,-,N/A,,Mostly Cloudy,150,2013-11-16 11:56:00
6:27 AM,42.8,35.6,76,29.61,10.0,SSE,8.1,-,N/A,,Overcast,150,2013-11-16 12:27:00
6:56 AM,43.0,36.0,76,29.62,10.0,SSE,9.2,-,N/A,,Overcast,160,2013-11-16 12:56:00
7:56 AM,44.1,36.0,73,29.61,10.0,SSE,15.0,21.9,N/A,,Overcast,160,2013-11-16 13:56:00
8:18 AM,44.6,37.4,76,29.58,10.0,SSE,16.1,-,N/A,,Overcast,150,2013-11-16 14:18:00
8:56 AM,44.1,37.9,79,29.60,9.0,SSE,16.1,-,N/A,,Overcast,160,2013-11-16 14:56:00
9:56 AM,44.1,39.9,85,29.59,7.0,SSE,11.5,-,N/A,,Overcast,150,2013-11-16 15:56:00
10:29 AM,42.8,39.2,87,29.57,6.0,SSE,9.2,-,N/A,,Overcast,160,2013-11-16 16:29:00
10:56 AM,43.0,41.0,93,29.57,3.0,SSE,8.1,18.4,N/A,,Overcast,150,2013-11-16 16:56:00
11:08 AM,42.8,41.0,93,29.54,2.5,SE,6.9,-,N/A,,Overcast,140,2013-11-16 17:08:00
11:32 AM,42.8,42.8,100,29.53,4.0,SSE,9.2,-,N/A,,Overcast,160,2013-11-16 17:32:00
11:56 AM,43.0,42.1,97,29.52,4.0,SSE,11.5,17.3,N/A,,Overcast,150,2013-11-16 17:56:00
12:56 PM,44.1,43.0,96,29.47,8.0,SE,13.8,19.6,0.02,Rain,Light Rain,130,2013-11-16 18:56:00
1:44 PM,44.6,42.8,93,29.41,2.0,ESE,8.1,-,0.00,Rain,Light Rain,120,2013-11-16 19:44:00
1:56 PM,44.1,43.0,96,29.42,4.0,SE,6.9,-,0.01,Rain,Light Rain,140,2013-11-16 19:56:00
2:56 PM,45.0,44.1,97,29.37,6.0,ESE,6.9,-,0.02,Rain,Rain,120,2013-11-16 20:56:00
3:56 PM,46.0,45.0,96,29.34,9.0,SE,3.5,-,0.11,Rain,Light Rain,130,2013-11-16 21:56:00
4:56 PM,48.0,46.9,96,29.30,10.0,SSE,6.9,-,0.01,,Overcast,150,2013-11-16 22:56:00
5:56 PM,50.0,48.9,96,29.29,9.0,South,10.4,-,0.00,,Overcast,170,2013-11-16 23:56:00
6:04 PM,51.8,50.0,94,29.28,9.0,South,9.2,-,N/A,,Overcast,170,2013-11-17 00:04:00
6:28 PM,51.8,50.0,94,29.27,8.0,SSE,9.2,-,N/A,,Overcast,160,2013-11-17 00:28:00
6:56 PM,53.1,51.1,93,29.28,9.0,South,9.2,-,0.00,,Overcast,190,2013-11-17 00:56:00
7:17 PM,51.8,51.8,100,29.28,6.0,South,4.6,-,N/A,,Overcast,180,2013-11-17 01:17:00
7:25 PM,51.8,51.8,100,29.28,7.0,South,6.9,-,N/A,,Mostly Cloudy,180,2013-11-17 01:25:00
7:56 PM,51.1,50.0,96,29.29,6.0,South,6.9,-,N/A,,Mostly Cloudy,180,2013-11-17 01:56:00
8:56 PM,55.0,51.1,86,29.32,10.0,SW,16.1,23.0,N/A,,Mostly Cloudy,230,2013-11-17 02:56:00
9:56 PM,52.0,46.0,80,29.35,10.0,WSW,15.0,26.5,N/A,,Clear,240,2013-11-17 03:56:00
10:56 PM,48.9,44.1,83,29.37,10.0,SW,8.1,-,N/A,,Clear,220,2013-11-17 04:56:00
11:56 PM,45.0,43.0,93,29.37,10.0,South,3.5,-,N/A,,Clear,180,2013-11-17 05:56:00